CW9784 Weather Reports


Display with metric or nautical units.
time (UTC)temp
F
wind
direction
speed
MPH
gust
MPH
rain 1hr
in
rain 24hr
in
rain mn
in
humidity
%
barometer
mb
20220817015020 73 0.0 3.0 0.00 0.00 0.00 72 1018.7
20220817014022 74 0.0 1.0 0.00 0.00 0.00 72 1018.6
20220817013044 74 0.0 1.0 0.00 0.00 0.00 72 1018.6
20220817012020 75 180 1.0 2.0 0.00 0.00 0.00 71 1018.7
20220817011022 75 0.0 2.0 0.00 0.00 0.00 71 1018.7
20220817010022 76 158 1.0 2.0 0.00 0.00 0.00 69 1018.6
20220817005040 76 158 1.0 3.0 0.00 0.00 0.00 68 1018.5
20220817004040 77 180 1.0 2.0 0.00 0.00 0.00 69 1018.5
20220817003102 77 0.0 3.0 0.00 0.00 0.00 68 1018.5
20220817002022 78 0.0 2.0 0.00 0.00 0.00 68 1018.5
20220817001022 78 180 1.0 3.0 0.00 0.00 0.00 67 1018.4
20220817000020 79 180 1.0 4.0 0.00 0.00 0.00 66 1018.5
20220816235022 80 203 1.0 4.0 0.00 0.00 0.00 65 1018.5
20220816234102 81 180 2.0 5.0 0.00 0.00 0.00 63 1018.5
20220816233022 81 180 2.0 6.0 0.00 0.00 0.00 64 1018.5
20220816232022 80 203 1.0 4.0 0.00 0.00 0.00 65 1018.5
20220816231022 81 203 1.0 3.0 0.00 0.00 0.00 65 1018.5
20220816230022 81 158 1.0 6.0 0.00 0.00 0.00 64 1018.5
20220816225022 81 180 3.0 6.0 0.00 0.00 0.00 65 1018.5
20220816224103 81 203 1.0 6.0 0.00 0.00 0.00 65 1018.4
20220816223025 80 203 1.0 5.0 0.00 0.00 0.00 67 1018.4
20220816222023 81 203 1.0 3.0 0.00 0.00 0.00 63 1018.4
20220816221021 82 180 1.0 5.0 0.00 0.00 0.00 62 1018.4
20220816220021 83 225 1.0 4.0 0.00 0.00 0.00 62 1018.6
20220816215021 84 180 2.0 5.0 0.00 0.00 0.00 60 1018.6
20220816214021 85 203 2.0 5.0 0.00 0.00 0.00 60 1018.8
20220816213022 84 180 2.0 7.0 0.00 0.00 0.00 62 1018.7
20220816212101 84 248 1.0 3.0 0.00 0.00 0.00 63 1018.7
20220816211042 83 180 3.0 7.0 0.00 0.00 0.00 63 1018.7
20220816210041 83 113 2.0 5.0 0.00 0.00 0.00 63 1018.7
20220816205021 83 203 2.0 6.0 0.00 0.00 0.00 63 1018.8
20220816204041 83 158 3.0 7.0 0.00 0.00 0.00 65 1018.8
20220816203020 81 180 2.0 7.0 0.00 0.00 0.00 68 1018.8
20220816202021 79 158 2.0 5.0 0.00 0.00 0.00 68 1018.8
20220816201021 79 90 2.0 4.0 0.00 0.00 0.00 69 1018.8
20220816200020 80 113 3.0 7.0 0.00 0.00 0.00 67 1018.9
20220816195021 81 135 2.0 7.0 0.00 0.00 0.00 66 1019.0
20220816194021 82 203 1.0 3.0 0.00 0.00 0.00 62 1019.1
20220816193121 83 135 2.0 6.0 0.00 0.00 0.00 61 1019.2
20220816192022 84 180 2.0 6.0 0.00 0.00 0.00 62 1019.3
20220816191041 83 135 2.0 5.0 0.00 0.00 0.00 58 1019.4
20220816185021 83 180 2.0 5.0 0.00 0.00 0.00 64 1019.5
20220816184041 82 225 1.0 4.0 0.00 0.00 0.00 65 1019.6
20220816183041 82 135 1.0 5.0 0.00 0.00 0.00 63 1019.7
20220816182040 81 180 2.0 5.0 0.00 0.00 0.00 66 1019.7
20220816181110 81 248 2.0 5.0 0.00 0.00 0.00 62 1019.8
20220816180141 81 225 1.0 6.0 0.00 0.00 0.00 67 1019.8
20220816175101 81 203 1.0 5.0 0.00 0.00 0.00 65 1019.9
20220816174020 81 203 1.0 5.0 0.00 0.00 0.00 70 1020.0
20220816173040 80 90 2.0 5.0 0.00 0.00 0.00 68 1019.9
20220816172021 80 180 1.0 5.0 0.00 0.00 0.00 66 1019.9
20220816171021 79 180 2.0 9.0 0.00 0.00 0.00 70 1020.0
20220816170041 79 203 2.0 5.0 0.00 0.00 0.00 67 1020.0
20220816165102 79 203 2.0 8.0 0.00 0.00 0.00 71 1020.0
20220816164020 78 180 2.0 5.0 0.00 0.00 0.00 72 1020.0
20220816163101 77 203 2.0 7.0 0.00 0.00 0.00 74 1020.0
20220816162021 76 203 1.0 4.0 0.00 0.00 0.00 76 1020.0
20220816161042 76 248 1.0 4.0 0.00 0.00 0.00 77 1020.0
20220816160040 76 248 2.0 5.0 0.00 0.00 0.00 78 1020.1
20220816155022 75 180 1.0 2.0 0.00 0.00 0.00 75 1020.2
20220816154020 75 203 2.0 7.0 0.00 0.00 0.00 76 1020.3
20220816153020 74 203 1.0 3.0 0.00 0.00 0.00 80 1020.3
20220816152022 74 180 1.0 4.0 0.00 0.00 0.00 78 1020.3
20220816151022 75 203 1.0 4.0 0.00 0.00 0.00 78 1020.3
20220816150042 75 203 2.0 5.0 0.00 0.00 0.00 77 1020.2
20220816145040 76 203 1.0 5.0 0.00 0.00 0.00 79 1020.3
20220816144022 75 180 1.0 4.0 0.00 0.00 0.00 80 1020.1
20220816143122 74 203 1.0 4.0 0.00 0.00 0.00 82 1020.2
20220816142142 74 203 2.0 5.0 0.00 0.00 0.00 83 1020.2
20220816141022 73 180 1.0 4.0 0.00 0.00 0.00 83 1020.2
20220816140022 73 158 1.0 4.0 0.00 0.00 0.00 84 1020.3
20220816135040 72 180 1.0 4.0 0.00 0.00 0.00 88 1020.3
20220816134102 71 180 1.0 4.0 0.00 0.00 0.00 91 1020.3
20220816133022 69 203 1.0 3.0 0.00 0.00 0.00 94 1020.2
20220816132042 68 0.0 2.0 0.00 0.00 0.00 95 1020.1
20220816131042 67 180 1.0 3.0 0.00 0.00 0.00 96 1020.1
20220816130042 66 0.0 0.0 0.00 0.00 0.00 96 1019.9
20220816125042 65 0.0 0.0 0.00 0.00 0.00 96 1019.8
20220816124022 65 0.0 1.0 0.00 0.00 0.00 96 1019.6
20220816123044 64 0.0 2.0 0.00 0.00 0.00 96 1019.4
20220816122025 64 0.0 0.0 0.00 0.00 0.00 96 1019.3
20220816121522 64 0.0 1.0 0.00 0.00 0.00 95 1019.4
20220816120522 63 0.0 0.0 0.00 0.00 0.00 95 1019.2
20220816115522 63 0.0 0.0 0.00 0.00 0.00 95 1019.2
20220816114522 63 0.0 0.0 0.00 0.00 0.00 95 1019.1
20220816113602 63 0.0 0.0 0.00 0.00 0.00 95 1019.3
20220816112521 63 0.0 0.0 0.00 0.00 0.00 95 1019.2
20220816112042 63 0.0 0.0 0.00 0.00 0.00 95 1019.3
20220816111022 63 0.0 0.0 0.00 0.00 0.00 95 1019.2
20220816110022 63 0.0 0.0 0.00 0.00 0.00 95 1019.2
20220816105022 63 0.0 0.0 0.00 0.00 0.00 95 1019.3
20220816104022 63 0.0 0.0 0.00 0.00 0.00 95 1019.3
20220816103142 63 0.0 0.0 0.00 0.00 0.00 95 1019.3
20220816102042 63 0.0 0.0 0.00 0.00 0.00 95 1019.3
20220816101123 64 0.0 0.0 0.00 0.00 0.00 95 1019.2
20220816100022 64 0.0 0.0 0.00 0.00 0.00 95 1019.5
20220816095022 64 0.0 0.0 0.00 0.00 0.00 95 1019.4
20220816094042 64 0.0 0.0 0.00 0.00 0.00 95 1019.3
20220816093022 63 0.0 0.0 0.00 0.00 0.00 95 1019.3
20220816092102 63 0.0 0.0 0.00 0.00 0.00 95 1019.2
20220816091042 63 0.0 0.0 0.00 0.00 0.00 95 1019.0
20220816090022 63 0.0 0.0 0.00 0.00 0.00 95 1018.9
20220816085040 62 0.0 0.0 0.00 0.00 0.00 94 1018.8
20220816084042 63 0.0 0.0 0.00 0.00 0.00 94 1018.8
20220816083022 63 0.0 0.0 0.00 0.00 0.00 94 1018.8
20220816082142 63 0.0 0.0 0.00 0.00 0.00 94 1018.8
20220816081042 63 0.0 0.0 0.00 0.00 0.00 95 1018.9
20220816080041 63 0.0 0.0 0.00 0.00 0.00 94 1018.8
20220816075022 63 0.0 0.0 0.00 0.00 0.00 94 1018.8
20220816074101 63 0.0 0.0 0.00 0.00 0.00 94 1018.7
20220816073043 63 0.0 0.0 0.00 0.00 0.00 94 1018.7
20220816072101 63 0.0 0.0 0.00 0.00 0.00 94 1018.8
20220816071021 63 0.0 0.0 0.00 0.00 0.00 94 1018.9
20220816070021 63 0.0 0.0 0.00 0.00 0.00 94 1018.9
20220816065041 63 0.0 0.0 0.00 0.00 0.00 94 1018.9
20220816064039 63 0.0 0.0 0.00 0.00 0.00 94 1019.0
20220816063109 63 0.0 0.0 0.00 0.00 0.00 94 1019.0
20220816062041 62 0.0 0.0 0.00 0.00 0.00 93 1018.8
20220816061020 63 0.0 0.0 0.00 0.00 0.00 93 1018.7
20220816060022 63 0.0 0.0 0.00 0.00 0.00 93 1018.6
20220816055101 63 0.0 0.0 0.00 0.00 0.00 93 1018.6
20220816054021 63 0.0 0.0 0.00 0.00 0.00 93 1018.6
20220816053022 63 0.0 1.0 0.00 0.00 0.00 93 1018.6
20220816052042 63 0.0 0.0 0.00 0.00 0.00 93 1018.4
20220816051020 63 0.0 0.0 0.00 0.00 0.00 92 1018.3
20220816050125 63 0.0 0.0 0.00 0.00 0.00 93 1018.2
20220816045121 63 0.0 0.0 0.00 0.00 0.00 92 1018.2
20220816044021 64 0.0 0.0 0.00 0.00 0.00 92 1018.4
20220816043020 64 0.0 0.0 0.00 0.00 0.00 91 1018.3
20220816042042 64 0.0 0.0 0.00 0.00 0.00 91 1018.2
20220816040020 64 0.0 0.0 0.00 0.00 0.00 91 1018.1
20220816035101 65 0.0 1.0 0.00 0.00 0.00 90 1018.1
20220816034020 65 0.0 0.0 0.00 0.00 0.00 90 1018.1
20220816033020 65 0.0 1.0 0.00 0.00 0.00 90 1018.1
20220816032100 65 0.0 0.0 0.00 0.00 0.00 89 1018.1
20220816031022 66 0.0 1.0 0.00 0.00 0.00 89 1018.1
20220816030022 66 0.0 2.0 0.00 0.00 0.00 89 1017.9
20220816025201 66 0.0 1.0 0.00 0.00 0.00 88 1017.9
20220816024045 67 0.0 1.0 0.00 0.00 0.00 87 1018.1
20220816023021 67 0.0 1.0 0.00 0.00 0.00 87 1018.1
20220816022040 67 0.0 1.0 0.00 0.00 0.00 86 1018.1
20220816021042 68 0.0 0.0 0.00 0.00 0.00 85 1018.1
20220816020020 68 0.0 0.0 0.00 0.00 0.00 84 1017.9